RH
5 5 5 5 5 5 4 5 5 5 6 7 9 11 13 15 16 18 17 15 15 15 16 16 16 17 17 18 18 16 14 12 11 12 15 15 13 12 9 10 6 6 6 7 33 46 40 38 34 30 24 25 24 22 30 32 31 31 36 41 32 24 18 14 17 16 15 17 17 17 18 16 18 21 24 25 24 25 26 27 31 33 35 37 42 51 59 65
6 5 5 5 5 5 5 5 5 5 5 5 6 7 9 11 14 16 17 17 15 15 15 16 16 16 17 18 17 16 15 12 10 12 17 16 12 11 10 9 8 6 5 17 37 36 29 29 27 26 22 22 21 18 24 25 25 26 30 38 36 24 14 14 15 14 16 17 17 17 17 16 17 19 21 21 22 23 23 27 30 32 38 42 46 53 59 64
5 5 5 5 5 6 6 6 5 6 5 5 5 5 6 7 10 12 15 18 17 16 14 15 16 16 17 17 17 17 15 14 13 15 16 16 13 11 11 9 9 6 5 21 33 26 23 23 21 24 19 17 17 15 17 19 21 20 22 31 30 18 14 15 14 14 16 17 18 17 18 17 17 19 20 19 20 21 22 25 27 32 40 43 47 54 58 62
6 5 6 6 6 6 5 6 6 6 6 6 5 5 6 5 6 8 10 13 16 17 15 15 15 15 17 16 17 16 16 17 15 16 14 12 11 10 11 9 9 7 6 19 27 22 19 19 21 21 17 15 14 14 14 15 18 17 24 35 25 13 15 15 14 15 14 17 18 18 19 17 17 19 18 18 19 20 20 24 25 32 39 42 48 53 55 58
6 6 7 7 7 7 7 7 6 6 6 6 6 6 6 5 6 6 6 8 11 15 16 16 15 15 15 16 17 15 19 17 12 18 15 9 10 10 10 9 10 6 6 20 23 20 17 15 19 19 16 14 11 12 11 12 16 14 22 31 20 12 16 13 13 15 14 17 18 19 19 17 18 18 18 17 19 18 18 22 24 31 39 42 48 52 53 55
6 6 7 7 7 7 7 7 7 8 7 7 7 6 6 6 6 6 6 6 6 9 13 16 16 16 15 16 16 15 20 15 10 19 17 10 10 10 10 9 11 7 12 24 20 16 17 14 15 17 14 11 11 11 9 10 13 14 17 19 16 15 15 12 13 14 14 16 17 19 19 19 19 17 18 17 17 16 16 21 23 31 40 42 47 51 51 54
6 6 6 6 7 6 7 7 7 7 8 8 8 8 8 7 7 6 6 6 6 6 7 10 13 15 15 15 15 17 21 15 11 19 16 10 12 12 12 12 10 11 20 24 17 14 15 13 12 13 13 11 10 10 9 9 10 14 16 15 15 15 14 13 13 12 14 15 17 19 19 20 19 18 18 16 17 17 17 20 23 32 40 42 46 49 49 52
6 6 6 6 6 6 6 6 6 7 7 8 8 9 8 8 8 7 7 6 6 6 5 6 7 10 13 14 17 20 18 13 13 18 13 10 15 13 12 13 11 17 23 18 14 13 11 11 10 11 11 10 10 9 9 8 8 12 15 14 14 14 13 12 11 12 14 15 17 19 18 20 19 19 18 15 18 19 19 21 24 31 39 42 45 47 48 50
7 7 6 7 6 6 6 6 6 6 6 7 7 8 8 9 8 7 8 7 6 6 6 6 5 6 8 10 16 18 13 11 13 16 13 13 21 18 15 20 17 19 21 14 12 12 10 10 9 10 11 9 9 9 8 8 8 11 14 14 13 13 12 10 9 11 13 15 17 17 16 19 20 19 17 16 19 20 20 22 25 31 37 40 43 45 48 50
7 6 6 6 6 6 6 6 6 6 6 6 6 7 7 8 8 8 8 7 8 7 6 6 6 6 5 9 17 15 12 12 11 14 16 18 24 23 21 26 25 22 19 14 12 9 9 9 8 9 10 9 9 8 8 8 8 10 12 13 13 12 11 9 10 10 13 15 16 16 16 18 19 19 18 18 20 20 20 24 29 34 36 38 41 44 49 50
6 6 6 6 6 6 6 6 6 6 6 5 6 6 6 7 8 9 8 8 8 6 7 5 6 6 4 15 22 14 11 13 12 15 19 20 21 21 19 19 23 23 18 15 12 9 9 8 8 8 8 8 8 8 7 7 8 9 11 12 12 11 10 10 10 11 13 14 15 15 15 17 18 18 18 20 22 21 22 26 31 35 37 38 40 45 50 51
5 5 5 5 5 5 5 6 6 6 6 6 6 5 6 6 6 8 7 8 7 8 8 5 7 5 6 21 24 14 13 13 13 15 19 21 20 18 16 16 19 20 18 15 12 11 9 9 8 7 8 8 8 8 7 7 7 8 9 10 11 10 11 11 10 12 13 14 15 15 17 19 19 17 17 21 23 22 22 27 32 35 37 39 41 46 50 51
4 4 4 4 4 5 5 5 5 6 6 5 5 5 6 5 6 7 7 8 7 8 6 6 7 4 14 27 18 13 16 14 14 15 17 21 20 16 15 16 16 16 17 16 13 12 10 9 8 7 8 7 8 8 7 8 7 8 8 9 10 11 12 11 10 12 12 14 15 16 21 22 19 17 18 22 24 22 22 25 30 32 34 39 42 46 50 51
4 4 4 4 4 4 4 4 5 5 5 6 6 5 5 5 6 5 7 7 7 8 7 8 8 11 29 28 11 12 17 15 17 17 17 19 18 15 15 16 15 14 15 15 14 13 11 10 9 7 7 7 7 7 7 8 8 8 8 8 11 13 12 10 10 12 12 16 16 16 22 21 17 17 18 21 23 22 22 23 26 30 33 37 41 45 49 50
3 4 3 4 4 3 3 4 4 4 5 5 5 5 6 6 6 6 7 6 7 8 6 10 12 22 38 27 12 16 15 15 18 17 17 17 16 14 14 15 14 14 15 14 13 12 12 11 9 7 7 8 8 7 7 7 8 8 9 10 10 12 13 9 10 12 13 16 16 16 21 18 14 15 19 21 22 22 22 22 24 27 30 35 40 43 47 49
3 4 3 3 3 3 3 3 3 4 4 5 5 6 5 5 5 5 5 5 8 9 10 25 33 32 31 20 17 19 14 16 17 16 16 15 15 13 13 13 13 14 13 12 11 11 11 9 8 8 8 8 8 7 7 9 9 8 10 11 10 11 13 11 10 11 12 15 16 17 20 21 16 14 19 21 21 21 22 22 22 25 28 32 38 40 44 48
4 4 4 3 3 3 3 3 3 3 3 5 5 5 6 6 6 5 7 6 9 11 14 35 52 45 28 17 18 17 13 16 16 16 16 13 14 12 13 12 13 14 12 11 11 10 11 9 9 8 8 8 7 7 10 12 12 10 10 11 10 11 12 13 12 10 11 14 17 16 19 25 20 15 20 22 21 21 21 22 22 24 26 30 36 37 41 48
5 5 4 4 3 3 3 3 3 3 4 4 4 6 6 4 4 5 9 10 16 26 24 33 48 40 25 20 19 13 11 14 15 16 15 13 13 13 13 12 12 13 10 11 11 9 9 8 7 7 7 8 7 8 11 12 11 11 10 10 11 11 11 11 12 11 11 14 17 17 18 21 18 17 21 22 21 21 20 22 22 23 25 29 35 35 38 45
6 6 5 4 4 3 3 3 3 3 3 4 5 5 4 9 17 20 27 35 37 35 29 34 39 24 13 17 18 13 11 13 15 15 13 12 12 12 12 11 11 12 10 9 9 8 7 7 7 7 7 8 8 8 9 10 9 9 9 10 12 11 9 9 10 10 11 14 15 16 17 17 18 20 20 20 22 21 20 21 22 22 24 28 33 34 35 42
7 6 6 5 4 3 3 3 3 3 3 5 5 7 12 22 30 30 39 53 48 29 19 24 27 17 11 12 13 12 12 13 15 14 11 10 10 11 12 11 10 11 10 8 7 7 6 7 8 7 7 7 8 7 7 7 7 8 8 10 10 10 10 8 9 10 9 13 14 15 17 16 18 20 18 19 21 21 20 21 22 22 23 27 31 33 34 39
8 7 7 5 4 4 4 3 3 3 4 4 4 10 17 18 18 19 23 29 28 23 19 16 15 14 12 10 8 9 9 11 11 11 10 9 10 11 11 10 9 10 9 7 6 7 6 8 7 6 6 6 7 7 7 7 7 8 8 9 9 9 10 7 8 10 9 12 14 14 16 16 17 17 17 19 20 21 20 20 21 21 23 25 29 32 33 37
9 9 7 6 6 4 3 3 3 4 4 6 9 13 18 17 15 17 17 12 11 12 13 12 10 10 10 8 8 7 7 7 7 8 9 9 10 11 10 9 9 9 9 7 6 7 7 7 5 5 5 5 7 7 7 7 7 8 9 9 10 9 9 8 7 8 10 12 14 15 15 15 15 17 19 20 21 23 21 20 21 21 23 25 28 31 33 35
11 10 9 8 6 4 5 4 3 5 5 8 17 19 20 21 18 16 17 14 11 8 7 9 8 7 8 8 7 7 7 6 6 7 8 9 10 10 10 9 8 8 8 7 6 7 7 6 5 4 4 5 6 7 7 7 7 8 9 9 11 9 9 9 8 9 11 12 14 16 16 15 15 18 21 21 21 23 22 21 20 21 22 24 27 31 32 35
12 11 11 9 6 6 4 2 5 12 10 10 20 23 19 18 14 14 19 16 11 9 8 8 7 7 7 6 7 7 7 7 6 6 7 9 10 9 10 8 7 7 7 7 6 6 6 5 4 4 4 5 6 7 7 7 8 7 8 9 10 10 9 9 10 11 12 13 14 16 20 20 17 19 20 19 20 21 22 21 20 21 22 23 26 29 32 35
11 12 13 10 9 7 3 12 22 18 11 14 22 20 13 12 10 14 23 18 10 9 8 7 7 7 6 7 9 8 7 7 7 7 8 9 9 9 9 9 8 7 7 7 6 6 5 4 4 4 4 5 6 7 6 7 8 8 8 8 8 9 8 8 9 11 14 18 16 16 24 27 20 19 19 17 18 20 23 23 22 22 22 23 24 26 31 34
10 11 13 11 11 6 6 25 32 14 8 18 23 19 14 11 8 17 27 19 9 8 8 8 7 7 8 9 10 9 9 9 8 8 9 9 9 8 9 9 8 8 6 6 6 6 5 4 4 4 4 5 5 6 6 6 7 8 8 7 7 8 8 8 9 11 16 19 16 15 25 29 22 19 19 16 18 20 23 23 22 24 25 25 25 26 29 31
10 10 12 11 11 9 8 17 16 6 14 24 21 18 17 10 8 20 27 17 9 8 8 9 8 8 9 9 10 10 10 10 9 10 9 10 9 8 9 8 8 8 6 6 8 7 5 5 5 5 4 5 5 6 6 6 7 8 6 6 7 7 7 8 8 11 14 15 16 14 20 28 26 20 17 15 18 21 22 21 21 25 28 29 29 29 29 30
11 9 10 11 10 10 8 7 4 8 23 26 17 15 14 7 10 22 25 19 12 7 9 11 11 11 10 10 11 10 10 10 10 10 9 10 10 8 9 8 8 9 7 7 9 7 6 6 5 4 4 4 5 5 5 5 7 7 5 5 6 7 7 8 8 11 11 14 19 17 17 27 29 21 15 14 15 19 21 21 22 24 26 28 31 32 31 32
14 9 9 10 9 11 13 8 3 9 20 19 12 9 7 8 17 21 21 20 12 6 9 13 13 12 11 11 11 9 10 10 9 10 9 10 10 9 9 8 8 8 7 7 8 7 6 6 5 4 4 5 4 4 4 5 6 6 6 6 6 6 7 8 9 10 11 16 21 17 16 24 26 20 17 17 16 17 17 19 22 22 23 25 29 33 35 37
18 12 10 10 8 14 20 13 8 10 12 10 7 5 9 20 25 20 17 17 10 6 9 12 12 11 11 11 10 9 9 9 9 11 10 10 10 9 9 8 7 8 8 7 7 7 6 6 5 4 4 5 4 4 4 5 6 5 6 7 7 7 7 8 9 10 14 19 19 16 14 18 23 21 18 18 17 15 15 17 20 20 20 22 27 34 37 40
21 16 11 10 8 11 15 17 25 28 15 5 5 8 15 23 22 18 18 13 7 6 9 11 10 9 10 11 9 9 8 7 9 11 11 10 9 9 9 9 8 8 10 9 8 7 6 6 5 4 4 4 4 4 4 4 5 5 6 7 8 9 10 12 12 12 17 19 16 14 13 16 22 21 16 15 14 13 15 17 18 17 17 20 27 34 36 36
24 20 13 10 10 8 9 15 30 35 16 3 9 15 17 19 18 17 15 9 8 8 7 9 8 8 10 9 8 8 8 7 8 10 10 9 9 8 9 10 10 11 13 11 9 9 8 7 6 5 4 4 5 4 4 4 4 5 6 8 11 13 15 18 17 15 17 17 13 11 12 16 19 17 14 13 13 12 13 15 15 14 14 18 24 27 27 27
25 21 15 12 10 9 9 8 15 18 8 5 16 18 14 18 20 15 10 8 9 7 6 7 7 7 9 8 7 8 8 8 8 9 9 9 9 8 8 9 9 10 12 11 10 11 11 8 6 6 5 4 5 5 4 4 4 6 6 9 12 13 18 22 20 18 18 15 11 9 12 17 16 14 12 12 12 10 11 12 13 13 11 13 20 25 25 24
23 20 18 14 11 9 7 6 7 6 5 15 23 17 13 18 18 11 9 9 7 6 7 7 6 7 8 8 7 7 8 8 7 9 10 9 9 9 8 9 8 8 9 10 11 12 13 11 7 7 7 5 4 4 4 4 4 5 5 7 10 11 16 20 17 18 18 15 12 11 14 16 15 14 12 10 10 9 10 11 11 11 10 9 13 19 24 24
22 19 18 19 20 19 14 12 10 5 11 24 22 13 14 17 13 10 10 8 6 6 7 6 7 8 8 7 7 6 7 7 7 8 10 10 10 9 8 8 8 8 8 10 11 10 12 11 6 5 6 5 5 4 3 3 5 5 4 6 9 9 12 15 14 14 15 16 15 13 14 13 12 11 9 8 10 9 9 9 8 9 9 9 9 11 19 24
20 18 23 32 36 38 38 31 20 15 23 27 19 13 14 12 8 8 7 6 7 6 6 7 8 9 9 8 7 6 6 6 7 7 8 9 9 9 8 8 7 7 8 9 10 10 12 10 6 6 7 5 4 4 3 3 5 5 6 7 8 8 9 12 14 13 14 17 17 13 13 12 10 10 8 8 9 8 9 8 7 8 8 9 8 9 19 26
18 21 29 35 34 39 50 45 35 37 37 26 19 16 11 8 7 7 5 6 6 5 6 8 9 9 9 8 7 6 6 7 7 7 8 8 9 8 8 7 7 7 7 8 8 9 11 10 7 6 7 6 4 4 3 3 3 5 7 7 6 7 8 11 14 15 16 18 16 13 13 12 13 12 10 10 9 9 10 9 8 8 7 8 8 8 14 21
22 32 35 33 34 44 56 49 46 54 42 25 24 22 13 8 7 5 5 6 6 6 8 8 8 8 8 8 8 6 7 7 7 7 8 8 8 8 8 8 7 6 6 7 8 8 8 11 9 6 7 7 5 5 5 4 3 4 5 5 6 9 11 12 15 16 17 19 17 14 12 12 12 11 10 12 10 9 10 10 8 8 8 7 9 10 12 15
38 41 33 36 45 52 52 45 47 54 41 26 25 21 15 11 8 6 5 4 5 7 10 9 7 7 6 7 7 5 6 7 7 7 7 8 8 7 7 7 7 6 6 6 7 7 8 11 10 7 6 7 6 6 7 5 4 3 4 4 5 8 10 11 13 13 15 18 17 15 14 13 11 9 10 12 11 9 9 10 9 8 8 7 8 9 10 15
51 37 28 42 52 47 42 39 42 44 38 31 25 17 14 12 9 8 7 5 5 6 10 10 8 7 7 6 6 5 5 5 6 7 7 7 8 7 6 7 7 7 6 6 7 7 8 11 11 8 6 7 8 7 6 6 5 4 4 5 6 7 8 10 10 9 12 16 17 17 16 14 9 8 9 11 11 9 8 9 9 8 7 7 7 7 9 16
56 35 30 45 51 46 41 35 31 30 29 30 25 19 16 12 10 9 8 7 5 5 7 8 7 8 7 7 7 6 6 5 5 7 7 6 6 7 7 7 7 7 7 7 7 7 8 11 12 9 7 8 8 6 6 5 4 4 4 4 6 7 8 10 11 10 10 12 14 16 16 13 8 7 8 9 9 8 7 8 8 8 7 6 7 7 9 16
56 36 30 37 40 39 35 28 23 22 22 23 21 20 18 15 13 10 8 8 7 5 6 5 6 7 7 8 7 7 7 7 7 8 7 6 6 7 8 7 7 6 7 8 8 7 8 10 12 11 8 7 7 5 5 4 4 4 4 3 4 5 7 11 15 14 11 10 11 13 14 13 9 8 8 8 8 7 6 7 7 7 7 7 6 6 9 16
50 39 33 32 29 27 26 25 23 20 19 18 16 15 15 14 14 12 10 9 7 6 6 5 5 5 5 6 6 6 7 8 9 9 7 7 7 7 8 8 7 7 8 9 8 8 9 10 13 14 10 7 6 5 4 4 4 4 4 3 3 4 6 8 11 11 10 11 12 13 15 12 8 9 9 8 8 7 6 8 8 7 7 6 6 9 14 18
51 48 41 33 30 29 25 22 23 21 19 18 16 14 14 12 12 13 12 11 9 8 7 6 5 5 5 5 5 6 7 8 9 8 8 8 7 7 7 8 8 7 7 9 9 9 10 12 14 17 16 12 9 8 7 6 5 4 4 4 3 4 4 6 8 10 13 14 13 14 15 12 9 10 10 8 9 8 7 7 7 7 8 7 6 11 15 17
53 46 38 32 32 34 28 23 22 22 20 19 18 16 14 12 12 12 12 11 10 9 8 7 6 4 4 5 5 6 6 8 9 8 8 7 6 6 6 8 9 7 9 15 15 10 10 13 14 17 19 17 14 13 10 7 6 5 4 4 4 4 5 6 8 11 16 16 13 14 15 12 10 11 10 9 9 9 9 7 6 7 7 6 7 10 11 12
56 43 34 30 30 32 32 29 28 31 31 32 33 26 20 19 15 12 12 12 12 12 10 8 7 6 6 5 6 7 6 6 7 8 8 7 6 6 6 7 8 10 18 23 18 12 11 13 15 17 18 15 14 14 9 6 6 5 5 4 4 4 4 5 6 10 14 14 13 17 18 13 10 10 10 10 10 10 9 7 6 7 7 7 8 9 11 14
62 46 35 36 40 39 37 37 42 51 51 49 48 39 31 30 25 21 19 15 13 13 11 10 9 8 7 6 6 7 7 6 7 8 8 7 6 6 6 6 6 14 23 20 13 13 15 14 14 16 16 13 12 11 8 7 7 6 5 5 4 4 4 5 7 9 12 12 12 17 20 15 11 10 11 11 10 10 10 8 8 7 7 7 8 9 13 19
59 48 40 42 47 43 39 40 47 56 53 48 48 43 37 37 35 33 30 22 16 14 13 14 14 11 9 9 8 8 8 8 8 8 8 8 7 6 6 5 6 13 17 13 11 13 14 15 13 12 14 13 11 10 8 8 8 6 5 5 4 4 4 5 7 7 9 11 11 14 19 16 11 9 9 9 9 9 9 8 8 8 7 7 7 10 14 24
58 52 46 44 45 41 41 42 44 47 45 42 44 42 38 38 36 34 31 28 28 25 18 15 14 11 10 9 10 12 11 10 10 10 9 8 8 9 9 7 8 11 11 11 13 13 14 17 14 11 13 13 11 11 9 8 8 7 6 5 5 5 4 4 5 4 6 9 8 10 15 14 10 8 8 8 8 7 7 8 7 8 9 7 7 8 10 18
67 58 54 51 47 42 41 39 37 39 38 37 41 41 37 36 35 32 29 31 39 38 31 28 24 21 19 17 15 14 12 11 10 10 10 10 9 11 12 11 10 11 11 12 13 13 14 18 17 15 15 14 12 11 11 10 9 8 8 7 6 7 6 5 5 4 5 8 7 8 12 11 8 8 9 8 8 7 8 8 8 8 8 7 8 7 6 9
70 65 64 60 50 44 44 40 36 38 38 38 40 38 35 32 29 28 28 31 37 36 35 39 41 37 34 31 25 17 13 15 15 12 11 11 10 11 10 9 10 10 10 11 12 13 15 18 19 19 19 17 14 13 12 11 10 9 9 8 7 7 7 6 6 6 6 7 7 8 9 9 9 8 8 8 8 8 9 9 8 8 8 8 7 6 7 7
71 65 64 63 56 48 44 40 38 41 40 36 34 33 33 30 26 29 37 38 34 30 33 40 44 41 40 41 37 29 25 26 26 23 21 19 17 14 11 11 12 11 11 11 11 13 16 19 20 21 24 23 18 15 14 13 17 17 12 9 9 7 7 7 6 6 5 6 7 7 7 7 7 7 7 8 8 8 9 9 8 8 9 9 7 8 9 6
Wind_Speed
14 15 15 15 15 15 16 16 16 16 16 16 16 16 15 15 15 14 13 13 14 14 14 14 13 12 12 14 15 15 18 19 18 18 17 15 12 12 13 15 15 11 12 8 8 14 14 15 16 15 14 13 14 12 11 10 9 6 2 1 4 4 1 4 5 3 6 9 9 10 9 10 11 9 10 8 10 14 13 13 12 9 9 14 20 25 26 26
14 14 15 15 15 15 15 16 16 17 17 17 16 16 16 16 16 15 15 14 14 15 15 15 15 14 13 15 16 18 21 21 22 20 17 17 14 11 9 11 13 12 13 11 14 17 15 15 16 15 15 13 14 12 11 12 11 6 2 2 6 4 2 4 5 4 6 9 10 9 9 9 10 11 11 9 11 14 11 13 14 12 13 16 23 27 27 27
14 14 14 15 15 15 15 15 16 16 17 17 17 17 17 16 16 16 16 15 14 14 15 15 16 16 16 16 17 19 22 26 24 15 10 12 10 7 7 8 10 12 14 14 15 16 14 14 14 15 15 14 13 11 9 10 10 9 5 3 7 3 2 3 5 5 7 9 11 9 8 9 10 11 10 9 12 12 10 12 15 14 16 20 25 27 27 27
14 15 14 15 15 15 15 15 16 16 17 17 17 17 17 17 17 17 16 16 16 15 15 15 16 17 17 17 18 19 23 26 15 3 6 5 5 7 8 7 8 11 15 15 15 15 14 13 13 15 15 13 13 12 10 8 8 9 8 6 7 3 1 3 4 6 9 9 10 10 8 9 11 10 10 10 10 9 10 13 15 17 19 22 26 27 28 27
14 15 15 15 15 15 15 15 16 16 17 17 17 17 17 18 17 17 16 16 16 16 16 15 16 17 17 18 18 18 21 14 1 8 4 5 9 9 9 7 6 9 16 16 15 16 15 14 14 15 15 12 13 11 11 11 9 6 7 11 8 3 1 3 3 6 9 9 10 10 8 9 11 10 9 10 7 6 10 14 15 18 21 24 26 27 28 27
15 15 16 16 16 16 15 16 16 17 17 17 17 18 18 18 18 18 17 17 16 16 16 16 16 16 17 17 17 17 14 8 1 4 7 12 11 7 7 6 5 7 17 17 15 16 16 17 16 16 15 12 13 11 11 13 11 6 4 10 8 1 3 2 3 5 7 9 11 10 9 11 10 9 10 10 5 3 10 15 16 19 22 24 25 26 27 27
15 15 16 16 16 16 16 16 17 17 17 18 18 18 19 18 18 18 17 17 16 17 16 16 15 16 16 16 17 16 15 15 11 9 10 13 7 4 4 4 4 8 16 17 17 18 17 18 19 18 15 11 13 13 12 12 13 9 5 7 7 4 6 5 2 4 7 8 10 10 10 12 10 9 10 11 7 4 8 15 17 19 23 24 26 26 27 27
16 16 16 17 17 16 16 16 17 17 18 18 19 19 19 19 19 18 18 18 17 17 16 16 15 15 16 14 14 14 17 17 9 7 10 10 5 4 4 3 4 9 15 17 18 18 17 20 21 18 14 12 13 12 12 12 11 10 7 7 7 7 10 9 5 5 8 8 9 12 12 11 10 9 10 11 10 7 9 15 18 21 23 24 25 26 27 27
16 16 17 17 18 17 17 17 17 18 18 18 19 19 20 20 20 19 18 18 17 17 16 15 15 14 15 13 12 14 14 9 4 5 9 8 5 4 4 4 6 10 15 16 17 18 18 19 21 19 15 14 14 13 13 12 8 10 9 10 9 10 13 8 4 5 9 10 11 12 12 11 11 9 10 11 11 10 13 16 19 22 24 24 25 26 26 27
18 17 17 18 18 18 17 17 17 18 18 18 18 19 20 20 21 19 18 18 18 18 16 15 14 14 14 12 11 11 8 6 6 6 6 7 7 6 6 7 8 11 14 15 16 19 19 18 18 19 17 16 15 14 13 11 8 10 12 12 12 13 12 5 4 6 9 11 13 13 11 12 13 9 8 12 11 12 16 17 19 22 23 24 24 25 26 26
19 18 19 19 19 19 18 17 18 18 18 18 19 19 20 20 21 20 19 18 18 18 16 15 14 14 13 10 13 12 6 6 7 6 7 8 10 10 9 9 11 12 14 15 16 18 19 18 15 16 14 14 14 13 14 13 12 9 11 12 14 15 10 6 6 8 10 10 13 13 11 12 13 8 7 15 14 13 18 18 19 21 22 22 22 24 25 25
20 20 20 20 20 20 19 18 18 18 18 18 19 20 20 20 20 20 20 18 18 17 17 16 14 14 11 12 19 17 10 10 10 10 11 11 12 13 12 11 12 13 14 15 16 16 18 18 16 16 14 12 12 11 11 15 17 12 10 11 12 13 9 9 8 10 10 9 13 14 10 11 12 8 9 18 16 15 18 18 20 20 21 22 22 23 24 24
20 20 20 20 20 21 20 20 19 18 18 18 19 19 20 20 20 20 19 18 18 17 17 16 14 13 10 14 19 15 12 14 14 14 14 13 14 14 14 14 13 14 14 14 15 15 17 17 18 19 18 14 13 11 6 10 18 14 12 10 8 10 8 9 9 11 11 10 15 14 8 8 11 10 11 19 18 18 19 19 20 20 21 22 22 23 23 24
19 19 19 20 21 21 21 20 21 20 19 19 19 19 20 19 19 19 19 19 18 18 17 15 13 9 10 17 17 11 13 14 13 14 14 13 15 15 15 15 15 14 14 14 13 13 15 16 18 19 20 18 16 15 10 9 14 12 12 10 7 8 7 11 11 12 12 11 16 13 6 7 11 14 15 19 20 19 19 20 20 20 21 22 22 23 23 24
19 19 18 19 20 21 21 21 21 20 20 20 20 20 20 19 19 18 18 18 18 18 16 12 9 6 11 21 18 12 12 11 11 11 11 12 13 14 15 16 16 14 12 13 12 12 13 16 18 17 17 19 17 15 11 9 10 9 10 9 9 8 6 11 13 13 12 12 16 13 5 5 10 16 19 19 19 20 19 20 21 20 21 22 23 23 23 23
20 19 19 19 20 21 21 21 21 21 20 20 20 21 20 19 19 18 18 17 17 17 12 7 5 6 10 13 8 10 10 10 11 10 10 10 11 12 14 15 15 14 12 11 11 11 13 15 18 17 15 16 14 11 9 9 9 10 10 9 9 9 7 8 11 14 14 12 15 14 6 3 7 16 20 19 19 20 19 20 21 21 22 22 22 23 23 23
22 21 20 20 20 21 20 20 21 20 20 20 20 20 19 20 19 18 18 16 15 14 9 4 2 7 13 10 7 10 12 12 10 12 11 8 9 9 11 16 15 15 13 12 12 12 14 16 15 14 14 13 11 11 10 10 10 9 11 9 9 11 10 9 9 14 15 12 13 15 9 5 6 15 19 18 19 20 19 20 22 21 21 22 22 23 23 24
23 23 22 21 21 22 21 21 20 20 19 18 19 19 19 19 18 18 18 16 11 8 8 8 6 6 12 13 13 12 13 14 12 13 11 8 10 8 11 16 15 16 15 13 14 15 15 16 14 10 12 12 12 13 12 12 12 12 12 8 9 13 13 12 11 14 16 13 13 15 12 8 8 12 15 16 18 20 19 19 21 22 22 22 23 23 24 24
24 24 23 22 22 22 22 21 20 19 18 16 17 18 18 16 16 16 14 11 8 6 6 9 14 8 8 5 11 10 9 14 13 12 10 8 10 10 12 15 15 18 16 12 14 18 15 13 13 12 11 14 16 16 15 15 17 15 12 10 10 12 11 11 12 14 16 14 14 14 12 10 11 12 12 14 16 18 19 19 19 21 22 23 23 23 24 25
24 24 24 22 22 22 22 22 20 18 18 16 14 14 14 12 10 7 4 11 18 17 16 12 17 19 18 11 10 9 9 14 15 15 13 12 12 13 15 17 17 18 15 12 13 18 17 11 12 14 15 19 21 21 20 20 21 17 12 13 14 12 10 11 12 15 16 13 13 13 12 13 13 14 12 13 16 16 18 19 20 21 22 23 24 24 25 25
24 24 24 23 21 20 21 20 19 17 16 14 11 10 11 10 7 6 6 13 22 24 27 26 22 25 25 19 14 12 12 15 18 19 15 14 16 15 17 19 16 13 14 15 13 16 16 13 15 18 19 21 22 22 22 21 23 19 14 13 13 12 11 13 14 17 16 12 11 12 13 14 14 13 13 12 13 15 17 19 20 22 22 23 24 25 25 25
24 24 23 23 20 20 19 19 17 14 13 12 10 9 8 8 6 8 11 16 23 26 28 30 29 29 27 24 20 16 15 16 17 19 16 16 19 16 17 19 15 12 15 16 13 13 14 14 18 21 20 21 21 22 24 24 23 18 13 12 11 11 11 13 13 17 15 9 9 13 13 13 14 13 13 11 12 14 17 19 20 21 22 23 24 25 25 25
24 24 23 22 21 19 18 17 14 12 11 9 9 8 7 7 6 8 11 15 21 25 26 28 29 29 27 25 22 20 20 19 18 19 20 20 22 20 17 16 15 14 15 16 14 12 12 14 19 20 20 22 22 23 24 22 19 15 14 12 10 12 13 10 7 12 13 9 9 12 12 11 13 13 13 14 16 17 19 20 20 22 22 22 23 25 26 27
24 25 24 22 21 18 17 16 11 9 11 9 8 7 6 6 7 10 12 13 16 20 24 27 26 26 26 21 18 21 23 22 19 19 22 24 24 22 17 16 16 15 15 19 21 17 13 15 20 22 21 23 23 23 23 18 14 16 18 14 11 14 16 12 8 10 11 11 10 11 9 8 12 13 13 16 19 20 20 20 20 21 22 22 24 25 27 28
22 24 24 23 21 19 15 10 5 6 10 8 6 6 4 5 7 10 9 10 11 12 15 20 21 20 20 15 14 20 20 19 20 18 22 28 26 19 16 17 15 14 17 21 21 17 16 16 19 22 21 23 23 21 21 18 13 16 19 18 17 17 18 16 13 12 10 10 13 13 10 7 12 14 13 14 17 18 18 17 18 20 21 22 24 25 27 29
21 22 23 22 21 20 12 4 3 8 9 4 3 5 6 7 8 8 5 7 8 6 6 12 16 13 16 16 16 18 14 16 21 18 21 27 27 20 15 14 12 14 17 17 14 11 14 17 18 21 22 23 23 19 21 21 14 13 16 20 22 20 18 17 15 12 9 9 12 15 11 7 10 14 15 14 15 16 16 15 18 20 20 21 22 24 27 29
20 20 22 21 19 19 14 6 7 8 6 2 3 6 9 8 6 7 3 7 7 7 8 9 10 10 15 17 20 17 7 10 19 19 21 24 26 23 16 12 12 13 14 12 10 9 14 19 19 21 23 22 20 17 21 23 15 11 16 21 23 22 20 19 16 12 9 9 11 15 13 9 8 11 15 17 16 16 17 17 17 19 21 22 22 23 26 28
21 18 20 21 16 15 16 14 11 7 5 5 6 7 7 5 5 5 5 6 2 6 8 7 6 9 12 16 24 18 4 10 15 17 22 23 24 23 16 15 14 13 15 12 11 11 15 21 21 21 20 17 18 19 21 21 16 14 17 19 20 21 22 20 16 12 11 10 10 14 15 11 9 10 13 16 17 17 18 18 17 18 22 24 24 24 26 28
22 18 18 21 16 12 14 15 12 9 7 7 8 7 4 5 5 4 6 6 2 3 6 8 9 10 13 16 22 21 10 9 9 13 22 21 23 22 14 16 16 14 17 16 13 11 13 19 22 20 16 15 19 21 21 20 17 16 18 18 17 18 20 19 16 12 11 12 12 15 17 12 9 10 11 13 14 16 16 16 16 19 23 24 25 26 27 30
22 18 17 21 18 12 12 14 12 9 7 8 8 5 4 5 5 6 9 5 4 4 8 10 11 14 17 15 16 19 16 13 9 14 19 19 23 23 16 17 17 12 14 16 16 15 13 17 20 19 16 16 19 19 19 22 21 18 17 17 18 16 14 14 13 11 11 12 15 18 19 15 11 9 11 13 13 13 13 13 14 17 23 26 26 27 30 35
22 19 16 18 19 14 13 12 7 5 6 7 6 5 5 6 5 9 9 3 4 6 11 10 12 16 19 16 13 16 16 14 12 15 14 14 18 19 15 14 13 11 11 13 15 16 16 14 14 17 19 18 18 17 20 24 24 19 15 15 15 12 10 11 11 12 12 12 14 19 21 20 13 10 11 14 16 17 15 14 15 17 23 27 28 29 34 37
22 20 16 16 18 17 15 10 7 10 10 6 6 7 7 7 8 10 8 1 1 7 10 11 14 15 19 19 14 16 16 13 14 15 13 12 12 14 14 12 10 11 11 11 12 14 16 15 12 15 21 21 17 15 17 20 20 19 15 13 14 11 10 11 11 12 13 13 15 17 19 18 14 12 14 14 16 19 17 15 17 22 27 30 32 30 30 31
23 21 17 14 16 19 17 13 13 17 13 7 8 9 8 9 10 11 11 6 3 4 5 10 15 15 18 18 14 15 16 14 15 16 15 15 12 14 18 17 16 13 10 11 12 12 12 15 18 16 16 21 20 14 13 15 17 18 15 14 14 12 11 12 12 12 13 13 16 18 15 13 12 12 16 17 17 17 17 21 25 28 28 26 33 34 30 28
24 21 18 14 15 18 17 13 15 16 13 10 9 9 11 13 11 10 13 13 8 3 3 7 13 16 17 16 13 14 13 12 16 16 15 15 13 13 16 19 21 16 11 11 11 11 12 13 18 18 13 17 23 19 16 15 15 17 17 16 16 13 11 12 11 11 12 11 15 18 14 11 10 10 15 18 18 19 19 23 26 28 26 22 25 31 31 28
24 21 18 15 13 15 15 13 14 13 11 11 9 10 14 13 10 10 11 12 12 10 9 10 12 14 15 14 14 16 15 12 15 16 14 14 13 13 14 16 21 19 12 11 9 11 14 11 14 20 17 17 22 21 21 17 14 15 16 15 15 13 12 11 11 13 13 11 12 13 11 10 10 11 12 13 15 20 22 21 22 24 25 23 20 20 25 26
25 21 18 14 12 12 12 11 11 11 12 13 11 11 14 11 9 9 8 9 12 13 11 11 11 12 12 12 13 18 17 12 14 15 13 15 15 15 16 14 19 21 15 11 7 8 12 10 12 20 21 21 20 20 22 19 12 11 14 16 16 17 16 12 12 14 14 13 11 11 11 11 12 13 13 14 16 16 17 19 20 23 25 24 19 15 20 25
25 23 18 14 11 10 9 9 8 12 14 13 13 13 12 12 13 12 10 9 11 13 13 11 10 12 13 11 12 17 17 12 14 12 10 14 14 16 18 15 19 23 20 15 9 8 9 9 12 19 20 21 20 20 22 23 18 11 12 16 17 18 17 12 11 12 12 13 10 13 17 14 12 11 11 17 20 16 15 18 18 20 23 21 17 15 18 23
24 23 22 15 8 9 10 7 6 12 15 12 15 17 13 12 16 16 16 14 12 11 14 12 9 12 14 12 11 16 17 13 13 12 11 11 11 15 19 16 17 22 24 21 12 8 9 8 11 18 18 18 19 17 17 22 26 20 13 15 16 16 15 12 11 12 12 13 10 15 19 14 12 10 9 15 20 18 19 19 17 16 18 19 19 20 22 23
20 20 17 4 7 9 9 6 6 13 14 11 13 15 12 15 18 20 21 19 15 12 12 13 12 12 13 14 13 14 17 15 13 12 11 9 9 15 19 16 16 20 24 22 14 8 9 7 8 14 17 16 14 14 13 16 23 23 18 15 13 13 13 12 12 11 12 13 11 14 15 11 12 10 11 15 18 19 20 18 16 16 20 23 23 22 22 22
16 15 9 4 7 5 6 7 10 13 12 11 13 12 12 15 19 24 27 22 16 12 12 14 15 13 13 16 15 13 15 17 16 13 11 11 11 13 17 16 16 19 22 23 18 11 9 8 7 10 16 15 12 13 16 16 17 18 18 16 14 12 12 14 15 13 12 12 10 12 12 11 10 9 12 16 16 16 18 17 15 15 22 25 20 19 18 19
15 12 6 5 4 5 6 9 12 11 10 11 14 14 15 15 15 21 28 27 21 16 15 15 15 14 13 14 14 13 13 14 15 13 10 14 14 10 12 15 15 17 19 19 17 13 8 7 8 9 12 14 14 16 20 20 17 16 16 17 16 13 13 15 15 13 14 14 11 11 11 10 9 10 12 15 14 12 15 17 16 20 27 25 18 20 20 22
14 10 6 3 5 9 10 10 10 11 11 12 15 16 17 16 16 18 22 25 24 20 18 17 16 16 14 13 13 13 13 10 12 14 11 13 16 12 12 17 18 17 16 14 15 15 11 7 8 10 10 13 17 19 20 21 21 19 17 18 18 15 14 13 12 13 15 15 14 14 13 9 8 10 10 13 14 14 16 15 14 18 23 18 15 19 23 29
13 14 16 15 14 15 14 10 10 11 11 14 20 22 21 17 16 18 19 19 19 17 17 16 17 18 16 15 15 14 15 12 11 15 13 11 15 12 11 16 20 18 14 12 14 16 12 8 9 10 9 11 16 17 18 21 21 19 16 18 19 19 18 15 12 13 14 15 15 14 13 11 9 9 7 8 11 13 14 15 15 17 19 19 21 17 19 26
17 20 24 21 13 13 14 9 9 10 11 17 20 21 23 21 18 18 17 16 15 14 14 14 17 18 16 16 17 16 16 14 12 15 14 11 13 13 12 13 16 16 13 11 11 13 12 9 9 9 8 10 13 13 15 19 18 14 15 19 21 24 27 21 14 12 12 17 20 15 11 12 11 7 4 8 11 11 16 20 22 22 19 20 21 10 14 15
18 17 20 19 13 15 15 12 11 11 12 17 19 20 21 19 21 24 21 18 17 16 15 15 17 18 17 17 18 18 18 15 12 13 14 13 11 13 15 13 13 16 10 4 4 9 12 11 10 11 10 11 12 11 11 14 14 12 16 22 23 26 31 24 14 13 13 16 19 15 11 12 12 12 11 11 12 11 15 20 21 21 18 19 19 8 3 9
14 10 12 13 12 14 17 17 16 12 10 13 14 16 18 15 18 24 22 19 19 20 18 16 18 18 18 20 19 19 21 20 16 12 13 14 11 11 13 12 16 15 2 5 2 7 8 10 14 15 13 11 12 11 11 12 14 15 19 24 24 25 29 23 14 14 14 13 14 13 14 16 16 16 16 16 15 12 11 13 14 15 17 20 19 11 7 11
11 8 9 9 8 10 13 13 10 8 9 12 10 10 15 14 12 14 18 19 21 23 19 16 19 18 18 21 19 18 20 21 20 17 15 15 13 13 16 18 20 13 2 3 7 8 7 11 17 21 20 17 15 14 15 15 16 19 21 24 25 25 27 23 18 18 18 15 15 14 15 19 20 17 16 18 18 15 13 14 15 15 18 16 15 13 12 14
11 11 14 11 8 8 9 9 9 9 12 13 9 10 14 13 12 12 14 16 18 21 17 14 19 21 19 19 16 16 19 20 20 20 18 16 14 14 17 20 20 12 3 7 11 9 9 12 16 20 21 22 21 18 17 17 17 20 20 22 23 24 27 26 23 24 22 18 17 15 16 21 23 23 21 18 16 16 18 21 20 20 23 20 14 15 19 19
13 13 15 14 11 12 13 16 15 12 12 10 8 11 13 13 14 13 12 12 13 15 15 16 21 22 22 22 17 14 16 16 17 18 16 17 16 14 13 15 17 15 12 12 12 10 10 10 14 18 18 22 24 22 21 21 20 20 21 21 22 23 26 26 25 26 25 23 22 21 22 24 23 22 23 22 21 21 21 23 23 22 25 24 21 20 21 21
13 11 12 12 14 16 17 19 16 11 9 9 8 10 12 13 15 14 13 11 10 13 16 14 13 15 17 19 19 19 17 16 17 16 15 16 15 12 11 10 13 16 16 15 13 14 12 9 12 15 14 17 22 23 24 24 22 22 22 22 23 24 25 26 25 25 24 24 25 25 24 21 18 20 24 26 29 28 22 20 22 23 24 23 22 23 22 18
14 11 11 12 11 13 15 16 14 10 8 8 9 10 11 14 15 14 14 14 14 15 14 14 15 16 17 18 17 18 17 14 13 13 14 15 15 15 14 11 11 14 16 15 14 13 12 10 11 13 12 13 16 19 23 24 23 24 23 23 26 24 22 22 21 22 22 23 24 24 21 16 15 18 22 24 27 27 24 23 23 22 22 22 20 19 20 21
16 12 11 11 10 10 12 11 11 11 10 10 12 13 13 15 15 13 11 12 16 18 14 13 14 12 13 15 13 13 18 20 19 19 17 12 11 14 15 11 12 13 11 13 13 12 12 10 10 12 11 12 16 19 19 18 18 19 19 22 25 24 22 22 21 22 23 22 19 18 16 15 15 17 19 22 25 25 25 28 29 26 25 25 24 21 20 24
Wind_Direction
320 319 318 317 317 316 315 314 312 311 309 308 307 306 305 304 304 302 299 294 290 291 294 296 298 297 301 306 310 318 318 316 314 304 286 272 264 256 254 257 261 246 239 242 195 195 200 209 212 210 219 212 219 226 199 205 231 245 242 204 272 263 190 109 118 96 99 115 130 151 156 135 136 135 124 138 141 140 149 143 135 126 128 139 142 144 147 149
320 320 318 317 317 316 316 314 312 311 309 308 306 304 303 302 302 301 300 297 291 290 290 293 294 294 299 301 308 315 314 314 308 290 265 259 261 253 252 258 256 237 224 214 195 201 204 207 208 206 216 217 221 215 196 207 213 209 180 197 241 239 96 120 138 111 118 131 134 153 157 138 138 138 148 166 146 146 154 147 147 137 129 135 141 146 149 150
320 319 318 317 317 317 316 314 313 311 310 309 307 305 303 301 300 299 298 297 294 290 288 290 291 294 296 299 306 311 314 314 302 279 243 235 237 241 263 271 257 234 217 206 201 206 209 211 207 206 219 228 223 208 200 202 200 192 163 250 242 175 95 157 152 127 125 135 140 152 156 139 140 145 161 168 144 155 167 153 158 150 143 146 147 150 152 153
319 318 317 316 316 316 316 315 313 311 311 310 308 306 304 303 301 299 297 296 295 291 288 287 288 291 292 299 303 309 315 309 293 203 153 194 234 263 279 283 265 235 208 199 207 210 215 215 208 212 223 236 227 213 215 196 195 194 162 232 243 120 112 157 150 156 131 137 146 147 160 146 144 155 165 164 150 166 173 161 167 159 153 155 152 155 158 157
316 315 315 315 314 314 315 314 312 311 310 309 309 307 306 305 302 301 298 296 294 291 289 286 287 287 289 295 298 308 313 308 137 131 153 300 302 280 275 278 271 231 195 193 210 210 217 218 212 219 226 239 236 222 223 207 215 231 180 226 244 93 144 132 144 179 140 142 148 150 167 145 147 166 165 168 172 176 170 166 167 162 159 159 156 158 162 161
315 313 312 313 312 312 312 311 311 309 309 308 307 307 306 305 304 304 301 300 296 292 289 286 286 285 287 291 294 303 301 298 351 195 254 301 299 276 276 261 252 209 186 195 212 210 215 218 215 220 224 235 240 232 226 209 210 243 214 231 259 337 238 190 145 171 155 161 154 158 164 144 159 173 165 172 179 149 155 159 159 158 161 161 160 161 165 165
313 312 311 311 310 310 310 309 308 307 307 306 305 305 304 304 304 303 303 302 299 296 292 288 287 284 285 287 292 293 273 275 280 246 267 290 271 256 283 237 220 180 185 202 209 210 212 215 216 219 224 229 237 238 238 224 205 223 243 227 241 245 238 243 209 156 175 182 156 166 167 155 173 169 168 175 159 133 141 148 151 154 160 163 162 164 168 168
311 311 311 310 309 309 309 308 307 306 305 304 305 304 302 302 302 302 303 302 299 298 295 292 289 284 284 284 288 286 268 270 265 239 268 269 235 252 266 221 203 174 192 209 207 211 212 215 219 218 228 231 231 233 237 241 212 209 243 238 218 225 235 238 229 162 178 187 161 176 172 162 179 162 173 177 148 153 151 145 151 153 160 165 166 167 170 171
313 312 312 310 309 309 308 308 306 305 304 303 303 301 301 301 300 301 301 300 299 298 297 296 292 285 283 281 279 278 272 264 236 260 270 245 230 241 222 213 206 186 200 210 209 215 215 218 220 219 233 237 236 234 229 236 219 194 218 243 226 227 237 235 231 184 181 186 175 183 173 166 176 158 175 175 144 159 161 149 152 156 162 167 168 170 171 173
318 315 314 312 310 309 308 308 307 305 305 303 302 301 301 300 300 301 300 300 298 296 298 296 292 287 282 279 272 267 266 252 240 256 243 217 218 214 203 210 207 202 208 211 213 215 216 221 222 224 239 244 240 240 233 232 232 200 200 231 237 241 245 245 257 199 182 188 185 186 176 171 174 170 181 161 146 163 159 151 155 159 165 168 169 171 172 176
321 319 316 314 312 310 309 309 307 306 305 304 303 300 300 299 300 301 300 299 297 296 297 295 292 285 278 265 253 255 263 260 250 243 233 223 221 217 212 211 207 211 214 216 217 216 220 224 225 230 236 245 247 247 243 240 252 231 205 217 225 239 241 239 248 187 179 190 185 188 180 174 172 188 187 152 152 166 160 158 160 163 167 169 170 170 174 178
322 322 318 316 314 311 311 310 307 306 305 304 301 300 300 300 300 300 300 299 297 296 294 295 290 280 275 253 248 257 265 262 262 255 245 235 229 225 219 217 214 216 219 221 221 218 222 224 229 235 229 236 244 244 242 234 244 247 232 227 217 228 226 228 230 176 181 182 180 193 186 178 177 198 184 154 158 166 166 165 164 169 170 171 173 171 176 180
324 324 321 319 316 313 313 311 309 308 306 303 300 299 299 300 301 300 299 298 297 295 294 295 287 276 263 251 256 267 265 259 262 256 245 236 233 230 225 223 220 221 224 225 227 221 222 223 226 234 235 237 231 234 266 240 235 236 236 241 230 233 215 211 211 175 180 172 182 201 195 184 187 203 184 158 164 169 170 169 169 176 173 174 177 175 179 182
326 325 322 319 317 315 315 312 311 309 307 305 300 299 299 300 300 299 299 297 296 294 295 294 284 266 240 256 270 271 259 255 253 247 240 230 228 230 226 221 218 219 222 226 232 225 219 220 223 232 237 242 244 246 264 248 233 232 231 231 226 244 211 188 190 178 177 168 185 201 210 204 189 195 184 163 170 174 172 173 175 179 176 178 180 179 182 184
328 326 323 321 318 316 316 314 312 310 310 306 302 302 301 301 300 299 297 295 293 292 294 292 280 246 247 272 278 263 250 240 234 230 223 216 217 223 218 213 211 211 215 219 224 221 214 212 217 227 231 237 250 256 253 237 228 225 230 228 208 230 222 177 173 186 186 167 184 200 216 213 180 180 177 169 177 178 177 178 178 181 180 180 181 183 184 184
329 328 326 324 321 319 318 316 313 312 311 307 305 304 304 304 301 298 295 291 289 287 289 296 290 257 264 282 263 233 225 212 216 203 194 203 207 214 205 201 202 200 206 208 207 208 206 208 214 222 227 227 233 243 247 236 226 213 222 232 208 208 216 180 169 192 194 166 185 205 220 235 173 165 167 174 182 181 182 181 181 184 182 181 183 185 186 186
330 329 328 327 325 323 321 318 316 314 312 310 307 305 306 305 302 300 295 285 281 281 274 250 252 254 256 258 227 225 213 202 200 183 185 196 200 208 193 191 195 192 194 193 194 198 197 203 211 217 225 226 219 223 231 230 221 210 213 226 224 212 200 187 183 195 193 171 189 208 214 224 169 153 163 179 186 185 188 186 183 187 186 183 185 188 189 188
330 329 329 328 326 326 324 321 320 316 314 314 310 309 309 305 303 297 287 280 274 275 267 231 202 240 250 239 235 237 209 191 183 179 186 189 195 207 194 193 192 187 189 189 191 195 193 199 207 212 217 218 217 216 221 226 222 217 209 207 230 225 204 190 183 188 189 180 192 207 208 205 166 150 166 182 190 191 193 192 188 188 190 187 188 191 192 191
329 329 329 329 327 327 325 324 324 319 318 318 313 314 311 305 299 285 273 263 229 226 264 207 186 232 295 250 225 232 198 182 183 189 196 202 205 207 203 202 195 189 193 189 187 191 191 195 207 214 212 210 214 217 219 226 231 230 214 204 223 230 219 202 178 174 188 193 198 202 208 207 174 163 177 184 195 202 198 197 194 191 192 190 191 194 194 195
327 328 328 328 327 326 325 325 325 322 321 320 320 320 315 309 297 280 244 232 230 245 270 244 211 245 282 279 231 220 199 191 200 212 221 226 216 206 203 204 201 197 201 198 186 188 193 202 210 213 214 210 211 218 223 228 236 239 225 214 220 227 230 216 179 164 184 207 208 199 209 216 189 177 188 187 194 206 205 201 200 196 195 194 195 197 196 197
324 326 327 327 325 325 325 324 324 322 319 321 328 324 327 336 319 324 328 267 251 253 262 260 249 251 261 262 250 235 225 219 218 224 233 222 207 204 197 198 205 202 205 209 195 187 197 213 217 213 216 216 212 216 222 228 236 241 238 226 220 225 229 219 193 169 181 209 212 204 212 219 208 191 185 186 195 208 210 206 205 202 198 197 198 199 199 197
323 324 326 325 324 325 325 325 324 320 316 321 325 317 324 337 306 308 320 289 272 264 257 256 255 252 251 252 249 242 238 236 226 223 222 203 198 201 189 192 209 205 201 210 202 191 203 219 218 212 214 218 217 216 220 228 235 239 242 237 225 224 229 229 207 171 171 201 210 210 216 217 215 194 174 186 204 213 213 210 209 208 204 200 198 200 201 198
323 324 325 325 324 325 327 326 323 320 319 321 321 309 295 292 290 308 306 285 282 275 256 245 245 245 244 243 238 229 230 234 230 221 208 195 199 204 193 193 210 211 202 207 208 200 206 214 214 212 211 216 219 217 218 225 232 235 237 234 228 226 225 227 201 162 167 198 217 220 220 220 217 194 176 192 205 212 216 211 208 210 210 206 202 201 202 200
323 323 324 326 324 326 330 328 325 327 326 322 310 285 265 274 300 327 311 276 278 274 252 237 234 236 236 234 223 214 221 228 230 222 202 195 200 204 205 203 207 215 208 207 213 216 217 209 208 212 210 213 219 219 217 220 225 231 234 232 227 229 227 217 187 176 188 202 219 235 233 225 221 206 192 195 200 207 212 209 206 207 210 210 208 205 203 202
322 322 323 326 325 326 335 342 341 329 322 319 297 253 257 306 313 336 323 274 266 266 246 225 221 229 224 213 201 203 217 226 226 219 197 196 201 198 206 208 207 218 213 210 214 221 225 208 200 210 211 211 218 219 217 218 220 226 230 234 235 230 227 224 206 194 207 208 209 225 237 228 217 215 212 203 198 200 203 206 205 203 208 212 212 210 205 204
320 321 321 324 326 327 339 9 306 310 317 308 264 253 285 308 318 343 325 270 265 244 187 185 197 204 197 193 188 195 219 222 215 212 194 196 204 201 204 205 206 221 216 213 217 223 225 211 201 208 210 211 217 220 217 218 224 224 221 227 237 240 232 231 226 211 218 220 203 212 232 237 218 216 218 212 202 197 198 211 211 202 204 212 215 216 212 207
317 319 319 320 327 331 333 324 292 306 326 295 246 279 287 286 322 352 296 267 262 206 155 156 178 181 189 188 178 187 223 191 189 199 194 195 202 206 213 205 200 220 219 213 218 216 215 213 209 208 210 210 213 218 216 217 226 229 218 216 224 238 241 238 238 225 220 226 212 213 228 242 232 223 221 215 209 203 203 212 213 203 203 210 214 219 221 214
315 316 316 314 321 328 320 310 300 303 319 294 264 273 282 282 315 333 266 268 268 150 141 151 167 173 185 178 179 191 162 142 171 189 190 195 199 202 217 217 207 211 213 217 220 208 206 214 214 208 211 213 211 215 214 214 223 227 228 228 220 226 238 244 248 237 218 227 228 216 220 233 237 232 230 224 217 211 206 206 207 208 208 208 208 216 228 226
314 313 314 310 310 319 311 301 294 282 278 274 257 254 285 302 297 279 251 259 258 160 148 148 152 173 181 174 190 205 193 180 192 171 176 192 201 205 219 224 221 215 212 223 230 216 206 213 218 213 210 218 217 214 211 210 220 225 231 243 239 227 226 230 241 244 228 229 237 225 218 228 237 230 230 231 226 219 209 200 204 212 212 209 207 210 223 232
312 311 311 306 306 315 307 300 300 288 268 257 245 241 290 291 257 236 232 233 253 204 146 143 162 179 184 179 195 210 210 214 191 159 174 188 198 211 222 222 228 228 215 222 230 234 222 208 217 221 212 218 224 216 211 214 220 225 227 235 240 237 234 231 232 243 243 230 228 226 224 230 238 228 222 225 226 225 216 204 206 215 215 211 207 204 213 226
313 310 304 300 302 303 293 294 304 288 266 252 240 243 268 253 229 236 227 224 280 203 146 158 183 178 185 194 197 198 206 213 184 170 187 185 190 207 213 214 222 227 220 218 220 230 230 208 209 224 217 215 223 219 215 217 218 222 224 227 233 235 243 247 233 228 239 237 226 223 222 227 235 230 226 224 222 222 218 211 208 216 219 210 202 201 209 218
315 310 299 291 291 285 277 272 253 255 265 259 243 248 244 226 224 233 221 152 263 194 172 188 190 180 190 203 206 193 196 207 188 183 193 188 190 199 204 207 201 204 216 213 206 213 225 221 207 217 218 213 216 217 214 214 214 215 218 220 225 223 222 234 232 225 232 237 234 228 223 227 236 231 228 228 226 221 210 208 215 222 222 204 193 200 208 213
317 313 303 288 281 278 274 266 250 254 266 264 249 243 229 230 229 218 214 213 180 156 185 202 191 188 195 204 213 198 194 200 189 188 198 198 200 199 205 212 203 206 216 207 204 200 212 225 216 212 214 209 212 218 211 206 206 208 209 213 219 219 217 222 225 228 231 230 234 238 236 237 239 231 228 227 232 231 205 201 218 231 234 209 187 191 199 207
320 318 308 292 280 278 277 270 255 252 254 247 241 227 219 232 231 211 215 223 226 216 231 219 197 195 203 211 215 201 199 207 194 192 197 198 207 204 202 211 211 214 223 211 208 205 207 217 212 207 203 202 209 219 221 209 205 209 209 216 223 219 220 225 220 223 231 231 231 234 234 237 235 227 227 221 226 237 220 205 213 224 237 231 200 187 187 200
324 324 316 303 287 278 275 266 252 242 228 220 224 220 220 228 225 221 225 224 233 238 233 232 214 203 209 216 220 215 213 215 201 200 204 202 210 209 201 208 210 212 220 217 206 207 218 221 203 201 203 205 207 214 222 217 210 211 208 216 222 214 219 236 236 229 233 237 232 229 231 237 240 236 230 218 216 229 229 222 220 217 221 230 222 193 180 191
329 329 320 302 282 271 265 254 239 220 210 211 222 225 224 231 227 225 231 225 234 237 227 222 214 213 216 211 221 221 213 214 208 202 209 211 212 215 210 205 204 208 214 217 208 203 220 225 199 195 202 210 210 208 216 221 216 203 205 217 218 213 221 236 241 235 235 239 232 232 238 233 235 237 228 227 228 226 227 230 230 226 221 218 218 206 186 188
334 335 322 295 267 248 235 238 225 208 211 219 229 231 229 237 238 238 247 245 242 241 236 228 208 214 222 211 215 213 200 205 217 211 210 215 214 214 215 208 202 207 212 219 226 212 219 228 200 194 201 208 209 210 216 224 228 212 204 215 216 218 225 229 237 232 231 240 233 230 239 234 230 227 210 225 232 220 223 234 232 230 229 218 203 207 209 203
336 332 315 293 250 213 210 225 212 207 218 228 236 240 242 242 240 242 250 255 258 249 241 239 216 211 222 219 216 210 202 201 211 217 219 219 215 207 211 212 202 203 209 216 227 214 212 231 204 196 203 203 201 210 217 220 226 231 226 213 210 217 218 215 229 229 226 238 234 231 239 240 241 226 200 230 236 218 217 226 222 219 223 218 200 201 215 215
334 321 306 279 163 189 210 227 222 219 226 233 236 239 243 247 249 250 250 252 256 251 243 244 235 222 223 227 226 215 212 211 208 216 221 219 218 205 204 209 201 199 204 209 223 223 206 225 218 195 194 194 193 205 216 211 215 229 237 224 215 220 216 212 223 227 230 236 234 233 236 238 243 225 206 232 237 224 219 216 215 216 217 215 203 200 206 201
326 307 290 145 150 209 238 245 236 230 232 237 243 246 242 246 249 249 250 252 254 248 242 241 239 234 228 229 234 228 224 221 213 217 219 212 219 210 201 205 202 198 200 204 216 227 204 206 225 196 181 188 199 203 212 213 203 212 226 224 216 214 216 221 222 220 228 235 232 234 234 232 239 222 209 227 232 221 214 210 210 219 231 229 210 200 196 179
313 293 262 166 182 248 258 251 239 235 242 242 245 252 252 255 254 247 245 246 249 250 250 250 247 246 243 235 233 233 236 230 213 216 223 210 217 218 201 208 208 197 197 201 209 218 209 196 216 213 187 194 213 211 212 220 216 208 214 221 222 216 214 222 223 216 222 231 234 239 240 234 236 231 218 223 231 218 206 209 203 207 227 232 209 200 191 173
295 273 250 226 273 273 261 258 246 238 244 245 248 252 253 258 260 255 247 242 241 241 243 251 252 250 251 248 242 238 243 241 213 216 227 215 214 212 196 206 213 202 196 203 205 207 214 208 209 224 213 202 213 216 212 217 226 225 216 217 224 225 219 219 221 219 221 226 231 240 247 237 227 237 225 210 221 223 207 206 206 210 221 226 224 218 188 174
288 281 280 282 284 266 251 254 252 245 245 249 254 256 255 254 251 251 252 247 242 237 233 239 244 245 247 247 247 244 241 242 227 222 228 222 217 212 191 200 214 211 197 201 203 197 206 223 211 219 235 217 210 216 216 212 219 230 225 216 219 224 226 226 225 226 225 221 223 231 238 233 227 243 238 198 210 232 226 212 211 217 220 223 235 226 166 164
298 291 284 280 272 248 243 249 249 250 251 248 249 250 250 252 252 250 248 244 243 242 239 236 235 237 241 241 244 245 240 237 230 226 229 228 219 213 197 196 217 221 202 195 199 187 193 217 215 208 223 221 206 206 213 209 209 221 225 219 216 219 226 229 226 230 230 222 225 231 233 230 227 227 216 186 187 214 234 225 215 218 225 230 232 205 133 159
301 289 278 271 246 229 240 252 260 266 267 263 260 253 248 246 244 243 247 250 249 247 246 244 240 238 236 236 237 240 240 239 233 227 230 234 227 217 206 191 208 223 212 185 207 201 197 202 207 211 211 210 207 205 207 204 204 213 224 225 220 217 224 227 220 225 232 224 224 231 237 230 216 200 195 195 190 200 225 225 215 213 223 238 243 237 175 212
299 290 283 279 256 240 242 253 270 283 287 289 287 272 265 260 243 238 243 248 247 250 255 249 244 241 234 231 232 232 233 235 236 232 228 230 227 221 216 205 210 220 244 21 259 226 223 207 202 216 226 221 214 213 211 205 206 209 217 225 225 222 225 227 220 225 233 231 225 227 240 238 223 205 193 194 201 204 215 223 218 217 221 223 226 233 248 245
286 280 282 291 290 272 255 256 284 320 314 310 317 299 288 288 277 263 258 251 241 242 251 254 249 244 234 229 228 229 230 230 231 233 232 233 230 221 219 218 216 208 68 347 234 218 238 230 210 212 224 235 234 224 215 212 218 218 214 218 225 226 227 225 224 227 231 236 230 218 230 240 236 227 210 199 203 202 202 214 221 238 247 231 206 203 221 240
274 276 284 291 291 276 267 280 313 331 313 307 312 308 302 296 290 287 283 279 261 243 240 244 247 249 246 240 232 226 227 226 226 227 228 233 235 227 215 210 212 208 195 239 230 216 229 237 224 214 214 226 238 240 229 221 227 230 221 216 218 225 229 229 229 227 226 236 239 221 220 233 237 239 234 223 214 205 206 217 224 239 253 248 225 206 204 207
277 280 286 291 284 276 280 288 294 299 297 299 296 292 295 290 282 282 286 298 299 281 264 243 235 242 248 248 243 232 225 224 225 223 223 228 231 232 221 202 201 212 221 225 220 216 226 233 230 226 219 218 227 236 239 235 233 233 230 225 220 222 228 232 236 235 231 236 241 234 230 230 229 234 240 240 238 230 220 220 221 229 240 243 237 230 218 200
275 289 295 294 284 279 282 281 278 276 275 275 269 270 276 277 279 283 285 293 312 310 298 281 270 277 276 266 254 240 230 232 231 223 221 224 222 230 239 220 204 207 211 217 215 208 215 226 227 232 236 226 221 225 233 237 239 236 232 230 229 227 226 226 230 236 237 238 239 238 239 238 230 230 235 236 239 244 242 227 216 215 224 231 232 235 240 233
265 281 288 292 286 279 281 279 272 269 264 253 248 254 258 261 265 270 279 288 288 284 298 324 331 324 316 303 277 251 250 262 263 257 250 237 226 226 231 230 227 218 206 210 215 206 207 219 223 228 238 236 226 226 230 233 240 242 237 233 232 232 231 231 229 228 230 236 239 238 239 240 233 233 236 234 232 239 246 242 230 220 219 226 234 234 242 252
265 264 264 275 279 274 275 278 271 267 265 255 251 252 252 256 263 266 271 281 278 276 298 337 340 325 312 312 319 322 324 325 319 309 300 288 267 245 232 232 248 247 228 214 212 207 207 214 217 219 230 236 230 232 236 236 239 242 238 237 239 236 233 235 237 233 229 232 236 237 239 241 237 236 240 240 233 230 238 244 242 238 234 238 246 243 238 248